SCP
0 0 0 0 0 0 0 0 0 0 0 0 0 0 0 0 0 0 0 0 0 0 0 0 0 0 0 0 0 -0 -0 0
0 0 0 0 0 0 0 0 0 0 0 0 0 0 0 0 0 0 0 0 0 0 0 0 0 0 0 0 0 0 0 0
0 0 0 0 0 0 0 0 0 0 0 0 0 0 0 0 0 0 0 0 0 0 0 0 0 0 0 0 0 0 0 0
0 0 0 0 0 0 0 0 0 0 0 0 0 0 0 0 0 0 0 0 0 0 0 0 0 0 0 0 0 0 0 0
0 0 0 0 0 0 0 0 0 0 0 0 0 0 0 0 0 0 0 0 0 0 0 0 0 0 0 0 0 0 0 0
0 0 0 0 0 0 0 0 0 0 0 0 0 0 0 0 0 0 0 0 0 0 0 0 0 0 0 0 0 0 0 0
0 0 0 0 0 0 0 0 0 0 0 0 0 0 0 0 0 0 0 0 0 0 0 0 0 0 0 0 0 0 0 0
0 0 0 0 0 0 0 0 0 0 0 0 0 0 0 0 0 0 0 0 0 0 0 0 0 0 0 0 0 0 0 0
0 0 0 0 0 0 0 0 0 0 0 0 0 0 0 0 0 0 0 0 0 0 0 0 0 0 0 0 0 0 0 0
0 0 0 0 0 0 0 0 0 0 0 0 0 0 0 0 0 0 0 0 0 0 0 0 0 0 0 0 0 0 0 0
0 0 0 0 0 0 0 0 0 0 0 0 0 0 0 0 0 0 0 0 0 0 0 0 0 0 0 0 0 0 0 0
0 0 0 0 0 0 0 0 0 0 0 0 0 0 0 0 0 0 0 0 0 0 0 0 0 0 0 0 0 0 0 0
0 0 0 0 0 0 0 0 0 0 0 0 0 0 0 0 0 0 0 0 0 0 0 0 0 0 0 0 0 0 0 0
0 0 0 0 0 0 0 0 0 0 0 0 0 0 0 0 0 0 0 0 0 0 0 0 0 0 0 0 0 0 0 0
0 0 0 0 0 0 0 0 0 0 0 0 0 0 0 0 0 0 0 0 0 0 0 0 0 0 0 0 0 0 0 0
0 0 0 0 0 0 0 0 0 0 0 0 0 0 0 0 0 0 0 0 0 0 0 0 0 0 0 0 0 0 0 0
0 0 0 0 0 0 0 0 0 0 0 0 0 0 0 0 0 0 0 0 0 0 0 0 0 0 0 0 0 0 0 0
0 0 0 0 0 0 0 0 0 0 0 0 0 0 0 0 0 0 0 0 0 0 0 0 0 0 0 0 0 0 0 0
0 0 0 0 0 0 0 0 0 0 0 0 0 0 0 0 0 0 0 0 0 0 0 0 0 0 0 0 0 0 0 0
0 0 0 0 0 0 0 0 0 0 0 0 0 0 0 0 0 0 0 0 0 0 0 0 0 0 0 0 0 0 0 0
Wind_Speed_500mb
43 46 50 55 58 57 57 54 51 48 43 36 30 27 27 26 23 20 18 17 18 12 7 2 4 10 5 6 14 22 22 22
44 47 49 54 57 57 57 55 52 50 45 39 33 28 27 26 24 21 19 18 19 17 11 5 4 12 10 14 15 21 22 21
42 49 52 54 57 59 59 56 54 51 45 40 35 31 28 27 26 22 20 19 20 18 15 9 7 12 18 15 10 18 25 23
43 46 51 55 58 59 59 57 54 52 47 43 38 33 29 28 27 24 22 21 20 19 18 14 11 15 22 20 15 17 21 22
47 52 53 55 57 59 58 57 56 54 50 46 40 34 31 29 28 27 25 24 22 21 20 19 15 21 26 24 20 17 17 23
60 59 59 59 58 60 60 61 59 57 53 48 41 38 37 33 30 29 29 27 25 23 22 23 19 22 28 29 28 22 21 23
62 63 63 63 65 63 63 61 60 60 55 48 46 45 43 38 34 32 31 31 28 25 24 26 24 21 28 32 33 31 28 30
67 67 65 63 64 64 62 60 61 58 55 53 52 49 46 42 39 35 33 33 32 29 27 26 29 27 25 29 30 28 30 31
67 64 62 62 60 59 61 62 61 60 57 55 53 50 48 46 42 38 35 34 34 33 30 28 29 32 30 30 29 30 31 31
64 63 63 61 61 62 61 61 60 61 58 55 52 51 50 47 44 40 39 36 36 35 34 31 30 36 38 35 33 32 34 31
59 65 61 64 62 61 60 58 56 55 54 52 52 50 48 45 43 42 40 38 37 34 34 32 31 35 40 41 38 37 33 34
61 59 59 58 59 57 54 52 49 49 48 47 47 45 44 43 42 41 39 36 34 33 32 29 26 27 36 43 43 37 37 37
69 66 61 59 57 53 52 46 47 47 44 43 43 44 42 39 40 38 37 35 33 32 30 28 27 28 32 40 38 37 37 37
77 70 64 59 52 49 45 42 43 41 40 40 41 40 38 37 36 36 35 32 29 26 22 18 17 19 23 31 32 34 34 36
79 72 68 60 52 44 44 45 43 43 42 40 38 38 36 34 33 32 30 29 29 24 21 18 17 18 22 30 31 30 32 31
84 80 73 65 58 51 50 49 47 45 43 40 37 34 32 31 30 31 31 30 31 27 24 21 21 20 20 27 28 24 30 21
87 83 80 75 69 65 58 55 51 50 46 40 35 31 28 26 26 26 25 24 27 30 29 28 27 24 22 24 25 24 23 23
97 89 86 78 69 70 63 53 46 41 40 36 31 28 25 24 22 21 21 22 24 26 31 32 32 29 27 28 25 22 21 23
98 91 80 75 78 69 60 52 43 38 33 29 26 23 21 19 17 16 16 18 18 21 24 29 34 35 33 31 28 26 26 25
100 91 89 85 75 65 57 49 42 35 32 28 24 21 18 16 16 17 18 18 19 18 17 18 19 25 30 37 37 34 31 28
Wind_Direction_500mb
181 185 188 190 193 193 197 201 201 200 201 204 205 206 209 208 209 209 207 204 198 196 186 171 170 168 165 161 163 161 159 166
184 186 189 193 195 197 199 202 202 201 201 203 204 204 208 207 208 212 206 208 202 197 202 190 146 163 145 142 146 155 157 164
187 188 191 194 198 200 201 204 203 202 203 204 204 204 207 206 209 211 210 207 205 201 201 198 170 178 159 161 155 159 162 161
186 191 195 198 200 201 202 205 203 203 204 207 207 206 208 208 210 211 213 209 208 208 199 198 184 182 174 173 158 162 166 162
192 197 199 200 202 202 203 206 205 206 207 209 209 208 210 213 211 213 215 213 211 212 205 199 198 190 189 182 180 161 165 173
199 201 203 203 204 204 205 205 205 208 210 211 208 210 214 216 216 215 218 218 216 215 209 205 208 192 194 196 195 192 191 184
205 205 205 204 205 205 206 206 207 210 213 213 211 213 217 218 219 218 218 222 222 220 216 212 211 208 197 202 210 212 214 210
208 210 209 208 208 208 207 207 209 212 214 215 216 217 219 221 222 222 221 224 225 224 221 217 217 217 207 211 213 219 214 218
211 210 209 207 206 207 207 210 211 213 216 218 218 219 220 222 224 224 224 224 225 226 225 222 221 219 215 214 221 224 221 219
212 207 205 203 204 206 207 210 213 215 218 219 219 220 220 221 222 223 224 224 225 226 227 227 224 220 219 214 221 227 219 222
206 202 198 199 202 202 204 207 212 215 217 219 219 219 218 218 219 221 223 224 225 227 231 235 236 226 218 216 221 228 226 227
197 192 192 193 196 197 200 203 209 213 214 215 214 213 212 212 214 216 220 224 224 225 230 236 238 234 226 223 221 225 233 233
185 186 188 192 195 195 199 199 206 206 206 204 202 203 205 207 209 212 215 219 222 224 225 230 234 231 227 230 228 232 238 233
187 185 186 186 185 188 188 191 190 189 189 189 191 194 197 200 203 207 211 215 220 222 226 230 233 232 239 225 222 232 240 239
181 179 178 174 169 177 178 170 174 173 175 177 182 185 188 192 196 202 208 212 211 209 221 236 239 239 244 214 220 237 241 249
176 174 169 161 160 162 163 162 162 164 164 167 172 178 182 188 196 203 207 211 210 206 216 231 240 243 234 217 230 246 241 236
169 164 157 151 149 149 146 152 154 151 151 153 157 160 168 178 191 200 209 215 218 216 213 223 233 235 229 226 233 239 238 239
160 153 149 148 146 153 150 149 150 151 150 152 156 161 168 174 181 189 199 208 216 224 225 222 232 234 235 236 242 241 241 227
154 152 152 155 156 151 149 150 152 153 153 156 160 168 178 187 194 201 203 203 209 219 226 230 234 236 237 243 244 244 246 244
153 154 157 155 151 151 150 150 152 154 155 158 163 170 178 188 203 215 219 221 223 222 221 226 235 240 237 236 237 242 247 250
Wind_Speed_850mb
43 46 50 55 58 57 57 54 51 48 43 36 30 27 27 26 23 20 18 17 18 12 7 2 4 10 5 6 14 22 22 22
44 47 49 54 57 57 57 55 52 50 45 39 33 28 27 26 24 21 19 18 19 17 11 5 4 12 10 14 15 21 22 21
42 49 52 54 57 59 59 56 54 51 45 40 35 31 28 27 26 22 20 19 20 18 15 9 7 12 18 15 10 18 25 23
43 46 51 55 58 59 59 57 54 52 47 43 38 33 29 28 27 24 22 21 20 19 18 14 11 15 22 20 15 17 21 22
47 52 53 55 57 59 58 57 56 54 50 46 40 34 31 29 28 27 25 24 22 21 20 19 15 21 26 24 20 17 17 23
60 59 59 59 58 60 60 61 59 57 53 48 41 38 37 33 30 29 29 27 25 23 22 23 19 22 28 29 28 22 21 23
62 63 63 63 65 63 63 61 60 60 55 48 46 45 43 38 34 32 31 31 28 25 24 26 24 21 28 32 33 31 28 30
67 67 65 63 64 64 62 60 61 58 55 53 52 49 46 42 39 35 33 33 32 29 27 26 29 27 25 29 30 28 30 31
67 64 62 62 60 59 61 62 61 60 57 55 53 50 48 46 42 38 35 34 34 33 30 28 29 32 30 30 29 30 31 31
64 63 63 61 61 62 61 61 60 61 58 55 52 51 50 47 44 40 39 36 36 35 34 31 30 36 38 35 33 32 34 31
59 65 61 64 62 61 60 58 56 55 54 52 52 50 48 45 43 42 40 38 37 34 34 32 31 35 40 41 38 37 33 34
61 59 59 58 59 57 54 52 49 49 48 47 47 45 44 43 42 41 39 36 34 33 32 29 26 27 36 43 43 37 37 37
69 66 61 59 57 53 52 46 47 47 44 43 43 44 42 39 40 38 37 35 33 32 30 28 27 28 32 40 38 37 37 37
77 70 64 59 52 49 45 42 43 41 40 40 41 40 38 37 36 36 35 32 29 26 22 18 17 19 23 31 32 34 34 36
79 72 68 60 52 44 44 45 43 43 42 40 38 38 36 34 33 32 30 29 29 24 21 18 17 18 22 30 31 30 32 31
84 80 73 65 58 51 50 49 47 45 43 40 37 34 32 31 30 31 31 30 31 27 24 21 21 20 20 27 28 24 30 21
87 83 80 75 69 65 58 55 51 50 46 40 35 31 28 26 26 26 25 24 27 30 29 28 27 24 22 24 25 24 23 23
97 89 86 78 69 70 63 53 46 41 40 36 31 28 25 24 22 21 21 22 24 26 31 32 32 29 27 28 25 22 21 23
98 91 80 75 78 69 60 52 43 38 33 29 26 23 21 19 17 16 16 18 18 21 24 29 34 35 33 31 28 26 26 25
100 91 89 85 75 65 57 49 42 35 32 28 24 21 18 16 16 17 18 18 19 18 17 18 19 25 30 37 37 34 31 28
Wind_Direction_850mb
181 185 188 190 193 193 197 201 201 200 201 204 205 206 209 208 209 209 207 204 198 196 186 171 170 168 165 161 163 161 159 166
184 186 189 193 195 197 199 202 202 201 201 203 204 204 208 207 208 212 206 208 202 197 202 190 146 163 145 142 146 155 157 164
187 188 191 194 198 200 201 204 203 202 203 204 204 204 207 206 209 211 210 207 205 201 201 198 170 178 159 161 155 159 162 161
186 191 195 198 200 201 202 205 203 203 204 207 207 206 208 208 210 211 213 209 208 208 199 198 184 182 174 173 158 162 166 162
192 197 199 200 202 202 203 206 205 206 207 209 209 208 210 213 211 213 215 213 211 212 205 199 198 190 189 182 180 161 165 173
199 201 203 203 204 204 205 205 205 208 210 211 208 210 214 216 216 215 218 218 216 215 209 205 208 192 194 196 195 192 191 184
205 205 205 204 205 205 206 206 207 210 213 213 211 213 217 218 219 218 218 222 222 220 216 212 211 208 197 202 210 212 214 210
208 210 209 208 208 208 207 207 209 212 214 215 216 217 219 221 222 222 221 224 225 224 221 217 217 217 207 211 213 219 214 218
211 210 209 207 206 207 207 210 211 213 216 218 218 219 220 222 224 224 224 224 225 226 225 222 221 219 215 214 221 224 221 219
212 207 205 203 204 206 207 210 213 215 218 219 219 220 220 221 222 223 224 224 225 226 227 227 224 220 219 214 221 227 219 222
206 202 198 199 202 202 204 207 212 215 217 219 219 219 218 218 219 221 223 224 225 227 231 235 236 226 218 216 221 228 226 227
197 192 192 193 196 197 200 203 209 213 214 215 214 213 212 212 214 216 220 224 224 225 230 236 238 234 226 223 221 225 233 233
185 186 188 192 195 195 199 199 206 206 206 204 202 203 205 207 209 212 215 219 222 224 225 230 234 231 227 230 228 232 238 233
187 185 186 186 185 188 188 191 190 189 189 189 191 194 197 200 203 207 211 215 220 222 226 230 233 232 239 225 222 232 240 239
181 179 178 174 169 177 178 170 174 173 175 177 182 185 188 192 196 202 208 212 211 209 221 236 239 239 244 214 220 237 241 249
176 174 169 161 160 162 163 162 162 164 164 167 172 178 182 188 196 203 207 211 210 206 216 231 240 243 234 217 230 246 241 236
169 164 157 151 149 149 146 152 154 151 151 153 157 160 168 178 191 200 209 215 218 216 213 223 233 235 229 226 233 239 238 239
160 153 149 148 146 153 150 149 150 151 150 152 156 161 168 174 181 189 199 208 216 224 225 222 232 234 235 236 242 241 241 227
154 152 152 155 156 151 149 150 152 153 153 156 160 168 178 187 194 201 203 203 209 219 226 230 234 236 237 243 244 244 246 244
153 154 157 155 151 151 150 150 152 154 155 158 163 170 178 188 203 215 219 221 223 222 221 226 235 240 237 236 237 242 247 250